NOAA 17 DEB

Satellite information

Favourite Embed

Satellite Type and Status

DEBRISIN ORBIT

Key statistics

Satellite NOAA 17 DEB at a glance.

Uptime

8529

Days in orbit

Revolutions

≈ 14.8

Per day

Orbit

SSO

Sun Synchronous Orbit

Inclination

98.7

Latest

Satellite identification and parameters

Extended collection of information and parameters for NOAA 17 DEB.

Object identification

Identified? True

Debris? True

Object name: NOAA 17 DEB

International designator: 2002-032CQ

Object number (NORAD): 48755

Object ID (CCSDS): 48755

Country: UNITED STATES OF AMERICA (US)

Current information (Y/N): Y

RCS size: SMALL

Orbital parameters

Period: 97.037 minutes

Inclination: 98.712 deg

SMA: 6994.975 km

Apoapsis: 626.41 km

Periapsis: 607.27 km

RAAN: 319.563 deg

Eccentricy: 0.00136813

Argument of periapsis: 296.3452 deg

Mean anomaly: 63.6355 deg

Mean motion: 14.83964384 rev/day

Mean motion (dot): 0.00038891 rev/day2

B* drag term: 0.0046504932 1/REarth

Two-line elements (TLE)

Creation date: Oct. 29, 2025, 7:31 p.m.

Reference frame: TEME

Reference center: EARTH

Epoch: Oct. 29, 2025, 6:28 a.m. UTC

TLE line 0: 0 NOAA 17 DEB

TLE line 1: 1 48755U 02032CQ 25302.27013351 .00038891 00000-0 46505-2 0 9991

TLE line 2: 2 48755 98.7120 319.5630 0013681 296.3452 63.6355 14.83964384242461

Live tracking on map

Real-time ground track for satellite NOAA 17 DEB.

In-orbit conjunctions

A list of the most updated potential collisions computed for object NOAA 17 DEB.

Target Orbit TCA Probability of collision Miss distance Type
SL-14 R/B LEO 2025-10-06 18:03:41 0.0002055465 138.0 (m) ROCKET BODY

Associated space launch

NOAA M carried weather imagers and microwave and infrared sounders, as well as a SARSAT search-and-rescue package. It had an on-orbit mass of 1475 kg.

NOAA 17 DEB was lifted into orbit during the mission ‘Titan II SLV | NOAA 17’, on board a Titan II SLV space rocket.

The launch took place on June 24, 2002, 6:23 p.m. from Space Launch Complex 4W.

For more information about the launch, click the button.

Launch to space Titan II SLV | NOAA 17
Titan II SLV | NOAA 17

Agency: N/A

Status: Launch Successful

Launch date: June 24, 2002, 6:23 p.m. UTC

Rocket: Titan II SLV

Launch pad: Space Launch Complex 4W

Location: Vandenberg SFB, CA, USA

...

Latest news about this satellite

There are no fresh news available about this satellite. Check back as we update our databases every day.


Newsletter sign-up

Weekly statistics, charts and insights to help you stay on top of the space industry.